[[{"header":{"parameterUnit":"m.s-1","parameterCategory":1,"la1":30.2991,"la2":30.254,"lo1":-89.0895,"lo2":-89.0444,"dy":0.0017,"dx":0.0017,"nx":28,"ny":28,"refTime":"2023-09-02T21:00:00:Z","depth":0,"parameterNumber":2,"parameterNumberName":"U-component_of_WINDS"},"data":[0,0,0,0,0,0,0,0,0,0,0,0,0,0,0,0,0,0,0,0,0,0,0,0,0,0,0,0,0,0,0,0,0,0,0,0,0,0,0,0,0,0,0,0,0,0,0,0,0,0,0,0,0,0,0,0,0,0,-3.609,-3.609,0,-3.6034,-3.6033,-3.6032,-3.5963,-3.5962,-3.5961,-3.596,-3.5902,-3.5901,-3.5901,0,0,0,0,0,0,0,0,0,0,0,0,0,-3.614,-3.6139,-3.6091,-3.609,-3.6089,-3.6034,-3.6033,-3.6032,-3.5964,-3.5962,-3.5961,-3.596,-3.5902,-3.5902,-3.5901,0,0,0,0,0,0,0,0,0,0,0,0,0,-3.6104,-3.6139,-3.6091,-3.6048,-3.6044,-3.6034,-3.6033,-3.6032,-3.5964,-3.5962,-3.5961,-3.5959,-3.5902,-3.5902,-3.5901,-3.5928,0,0,-3.5898,-3.5898,0,0,0,0,0,0,0,0,-3.6106,-3.6102,-3.6055,-3.6051,-3.6046,-3.6004,-3.6029,-3.5997,-3.5964,-3.5994,-3.596,-3.5958,-3.5937,-3.5933,-3.5926,-3.5925,-3.5922,-3.5898,-3.5898,-3.5897,-3.5897,0,0,0,0,0,0,0,-3.6109,-3.6105,-3.6068,-3.6055,-3.6049,-3.6032,-3.6025,-3.6022,-3.5975,-3.5992,-3.5986,-3.5981,-3.5934,-3.5927,-3.5924,-3.5922,-3.5898,-3.5897,-3.5897,-3.5897,-3.5937,-3.5939,0,0,0,0,0,0,-3.6118,-3.6107,-3.607,-3.6066,-3.6073,-3.6032,-3.6025,-3.6019,-3.5975,-3.5967,-3.5982,-3.5978,-3.5929,-3.5925,-3.5922,-3.5948,-3.5897,-3.5896,-3.5896,-3.5936,-3.5938,-3.5939,0,0,0,0,0,0,-3.6119,-3.6115,-3.6072,-3.6085,-3.6078,-3.6033,-3.6028,-3.6019,-3.6011,-3.5968,-3.5959,-3.5983,-3.5928,-3.5923,-3.5926,-3.5945,-3.5896,-3.5895,-3.5934,-3.5936,-3.5938,-3.6002,0,0,0,0,0,0,-3.6121,-3.6116,-3.6126,-3.6086,-3.6078,-3.6077,-3.6029,-3.6019,-3.601,-3.6004,-3.5967,-3.5959,-3.5926,-3.5928,-3.5925,-3.5943,-3.5895,-3.5932,-3.5935,-3.5938,-3.5998,-3.6006,-3.6013,0,0,0,0,0,-3.6123,-3.6146,-3.6126,-3.6122,-3.6089,-3.6079,-3.6074,-3.6036,-3.6012,-3.6021,-3.5993,-3.596,-3.5945,-3.5929,-3.5925,-3.5943,-3.593,-3.5934,-3.5937,-3.5994,-3.6005,-3.6013,0,0,0,0,0,0,-3.6189,-3.614,-3.6118,-3.6129,-3.6109,-3.6067,-3.6077,-3.6048,-3.6034,-3.6028,-3.5982,-3.5974,-3.5982,-3.5964,-3.5947,-3.5966,-3.5932,-3.5936,-3.5977,-3.5986,-3.5994,-3.5997,-3.5894,0,0,0,0,0,-3.6205,-3.6201,-3.6159,-3.6173,-3.6164,-3.6123,-3.6117,-3.6089,-3.6066,-3.6056,-3.6029,-3.6007,-3.5997,-3.5991,-3.598,-3.5996,-3.5986,-3.6007,-3.6015,-3.6021,-3.6023,-3.6028,-3.6036,-3.5951,-3.5951,-3.5951,0,0,-3.6238,-3.6211,-3.6211,-3.6185,-3.6166,-3.6162,-3.6115,-3.6113,-3.6109,-3.6056,-3.6056,-3.6036,-3.6009,-3.6018,-3.6021,-3.6002,-3.6045,-3.6026,-3.6031,-3.603,-3.6033,-3.6041,-3.6048,-3.5953,-3.5953,-3.5953,0,0,-3.6295,-3.6275,-3.6283,-3.6265,-3.6237,-3.6209,-3.6212,-3.6175,-3.6158,-3.6158,-3.6118,-3.6113,-3.6097,-3.6079,-3.6067,-3.6118,-3.6086,-3.6116,-3.6155,-3.616,-3.6167,-3.6173,-3.6188,-3.6194,-3.6119,-3.6119,-3.612,0,-3.6339,-3.6331,-3.6291,-3.6291,-3.628,-3.6233,-3.624,-3.6225,-3.6194,-3.6187,-3.6168,-3.6146,-3.6125,-3.6128,-3.6141,-3.6134,-3.6134,-3.6118,-3.6169,-3.6175,-3.6179,-3.6193,-3.6199,-3.6123,-3.6123,-3.6122,-3.6122,0,-3.6385,-3.638,-3.6391,-3.6361,-3.6352,-3.6356,-3.6317,-3.6313,-3.6287,-3.6261,-3.6261,-3.6234,-3.6215,-3.6215,-3.619,-3.6214,-3.6203,-3.6178,-3.6143,-3.6191,-3.6203,-3.6209,-3.6128,-3.6127,-3.6126,-3.6125,0,0,-3.6479,-3.6429,-3.6433,-3.6418,-3.6384,-3.6379,-3.6381,-3.6363,-3.6358,-3.634,-3.6339,-3.6327,-3.6302,-3.629,-3.6263,-3.6268,-3.6306,-3.6241,-3.6239,-3.6251,-3.6328,-3.6345,-3.6352,-3.6287,-3.6288,-3.6288,-3.6329,0,-3.6526,-3.6525,-3.6491,-3.6499,-3.6493,-3.6449,-3.645,-3.6429,-3.6406,-3.6397,-3.6372,-3.6363,-3.6333,-3.6325,-3.6328,-3.6301,-3.632,-3.6298,-3.6283,-3.6283,-3.6287,-3.6358,-3.6376,-3.6416,-3.6334,-3.6335,-3.6335,0,-3.6581,-3.6565,-3.6573,-3.6537,-3.6533,-3.6535,-3.6514,-3.6508,-3.6483,-3.6465,-3.6452,-3.6421,-3.6419,-3.6389,-3.6385,-3.6371,-3.6363,-3.6349,-3.6349,-3.6343,-3.6309,-3.6351,-3.6428,-3.6433,-3.6343,-3.6342,-3.6342,0,-3.6644,-3.6625,-3.6626,-3.6616,-3.6576,-3.6577,-3.656,-3.6534,-3.6525,-3.6508,-3.6501,-3.6485,-3.6475,-3.6462,-3.6427,-3.6409,-3.6427,-3.6394,-3.641,-3.6411,-3.6413,-3.6413,-3.6486,-3.6415,-3.6415,-3.6415,-3.6414,0,-3.6699,-3.6705,-3.6654,-3.6655,-3.666,-3.662,-3.6626,-3.6605,-3.6582,-3.6578,-3.654,-3.6536,-3.6492,-3.6483,-3.6457,-3.6456,-3.6453,-3.6438,-3.6429,-3.6439,-3.644,-3.643,-3.6425,-3.6416,-3.6416,-3.6415,-3.6415,0,-3.6769,-3.6736,-3.6734,-3.6696,-3.6687,-3.6692,-3.6659,-3.6657,-3.6633,-3.6627,-3.6624,-3.6585,-3.6572,-3.6537,-3.6517,-3.6499,-3.6504,-3.6492,-3.6512,-3.6507,-3.6524,-3.6521,-3.6591,-3.6596,-3.6525,-3.6526,-3.6526,0,-3.6804,-3.6807,-3.677,-3.6764,-3.6748,-3.674,-3.673,-3.6692,-3.6683,-3.6655,-3.6657,-3.6642,-3.6627,-3.661,-3.6579,-3.6562,-3.6547,-3.6573,-3.6544,-3.6553,-3.6543,-3.6542,-3.6541,-3.6578,-3.6579,-3.658,-3.658,0,-3.6868,-3.6852,-3.6839,-3.6821,-3.6811,-3.6795,-3.6777,-3.6774,-3.6731,-3.6724,-3.671,-3.6699,-3.6678,-3.6662,-3.6641,-3.6623,-3.6594,-3.659,-3.6592,-3.66,-3.661,-3.6601,-3.6525,-3.6588,-3.6587,-3.6586,-3.6586,-3.6586,-3.6919,-3.692,-3.6893,-3.688,-3.6862,-3.6846,-3.6842,-3.6818,-3.6806,-3.6785,-3.6764,-3.6752,-3.6727,-3.6695,-3.668,-3.667,-3.6655,-3.6659,-3.6659,-3.666,-3.6663,-3.6615,-3.6667,-3.6666,-3.6666,-3.6666,-3.6666,0,-3.6979,-3.696,-3.6949,-3.6924,-3.6914,-3.6889,-3.6868,-3.686,-3.6851,-3.683,-3.6816,-3.6801,-3.6786,-3.6755,-3.6736,-3.6734,-3.672,-3.6731,-3.6728,-3.6724,-3.6679,-3.6677,-3.6742,-3.6742,-3.6742,-3.6742,-3.6742,-3.6742,-3.7009,-3.7006,-3.6987,-3.6976,-3.6957,-3.6945,-3.6935,-3.6919,-3.6902,-3.6886,-3.6873,-3.6853,-3.6828,-3.6808,-3.6792,-3.6784,-3.6777,-3.6791,-3.6778,-3.6735,-3.6728,-3.6721,-3.6719,-3.6791,-3.6791,-3.6823,-3.6823,-3.6824]},{"header":{"parameterUnit":"m.s-1","parameterCategory":1,"la1":30.2991,"la2":30.254,"lo1":-89.0895,"lo2":-89.0444,"dy":0.0017,"dx":0.0017,"nx":28,"ny":28,"refTime":"2023-09-02T21:00:00:Z","depth":0,"parameterNumber":3,"parameterNumberName":"V-component_of_WINDS"},"data":[0,0,0,0,0,0,0,0,0,0,0,0,0,0,0,0,0,0,0,0,0,0,0,0,0,0,0,0,0,0,0,0,0,0,0,0,0,0,0,0,0,0,0,0,0,0,0,0,0,0,0,0,0,0,0,0,0,0,3.3096,3.3096,0,3.3116,3.3117,3.3117,3.3064,3.3063,3.3061,3.306,3.3078,3.308,3.3082,0,0,0,0,0,0,0,0,0,0,0,0,0,3.3008,3.301,3.3096,3.3096,3.3097,3.3116,3.3117,3.3117,3.3065,3.3063,3.3061,3.3059,3.3077,3.3079,3.3082,0,0,0,0,0,0,0,0,0,0,0,0,0,3.3039,3.3011,3.3096,3.3073,3.3071,3.3116,3.3117,3.3117,3.3065,3.3063,3.306,3.3058,3.3076,3.3079,3.3082,3.315,0,0,3.3091,3.3093,0,0,0,0,0,0,0,0,3.3038,3.3043,3.3076,3.3075,3.3073,3.3085,3.3092,3.3128,3.3066,3.3067,3.306,3.3057,3.3082,3.3084,3.3093,3.3151,3.3151,3.3091,3.3093,3.3095,3.3095,0,0,0,0,0,0,0,3.3036,3.3041,3.3104,3.3077,3.3074,3.306,3.3062,3.3099,3.3088,3.3067,3.3063,3.3067,3.3081,3.3091,3.3094,3.3152,3.3091,3.3094,3.3096,3.3097,3.3265,3.3267,0,0,0,0,0,0,3.3037,3.304,3.3103,3.3105,3.3049,3.3064,3.3066,3.3084,3.3088,3.3086,3.3069,3.3064,3.3087,3.309,3.3094,3.3173,3.3095,3.3097,3.3099,3.3262,3.3265,3.3268,0,0,0,0,0,0,3.3035,3.3043,3.3102,3.3071,3.3078,3.3068,3.3089,3.3085,3.3096,3.3089,3.3086,3.3081,3.3085,3.309,3.3136,3.3173,3.3099,3.3101,3.3259,3.3263,3.3267,3.3333,0,0,0,0,0,0,3.3033,3.3043,3.3069,3.3072,3.308,3.3146,3.3091,3.3088,3.3101,3.3095,3.31,3.3098,3.3083,3.3132,3.3139,3.3176,3.3104,3.3256,3.3261,3.3266,3.3328,3.3339,3.3349,0,0,0,0,0,3.303,3.3086,3.3071,3.3079,3.3113,3.3148,3.3152,3.3135,3.3104,3.313,3.3126,3.3098,3.3168,3.3137,3.3145,3.3183,3.3253,3.326,3.3265,3.3323,3.3337,3.3348,0,0,0,0,0,0,3.3086,3.3086,3.3069,3.3128,3.3139,3.3139,3.3171,3.315,3.3168,3.3162,3.3138,3.314,3.3191,3.3191,3.3157,3.3249,3.3205,3.3213,3.3247,3.326,3.327,3.3269,3.3106,0,0,0,0,0,3.3106,3.3136,3.3134,3.3186,3.3192,3.3181,3.3196,3.3182,3.3191,3.3195,3.3194,3.3203,3.3227,3.3243,3.3265,3.3327,3.3327,3.3357,3.3368,3.3376,3.3383,3.3416,3.343,3.3288,3.3288,3.3288,0,0,3.3146,3.315,3.317,3.3197,3.3204,3.3234,3.3185,3.3219,3.3241,3.3199,3.3244,3.3244,3.3252,3.3307,3.3331,3.3309,3.3423,3.3384,3.3391,3.3393,3.3424,3.3437,3.3449,3.3292,3.3291,3.3291,0,0,3.3235,3.3241,3.3286,3.3293,3.3304,3.3296,3.3307,3.3311,3.3309,3.3354,3.3323,3.3348,3.339,3.3398,3.3407,3.35,3.3475,3.3507,3.3562,3.3594,3.3605,3.3615,3.3648,3.366,3.3514,3.3514,3.3514,0,3.3284,3.333,3.3311,3.3348,3.336,3.3325,3.3369,3.3377,3.3394,3.3403,3.3379,3.3431,3.3434,3.349,3.3513,3.3522,3.3533,3.3507,3.3606,3.3615,3.3624,3.3655,3.3667,3.3518,3.3518,3.3517,3.3517,0,3.3389,3.3421,3.3455,3.3474,3.349,3.353,3.3517,3.3536,3.352,3.3515,3.356,3.3563,3.3585,3.3597,3.3582,3.3651,3.3637,3.361,3.3565,3.3642,3.367,3.3682,3.3524,3.3522,3.3521,3.352,0,0,3.3514,3.3522,3.3535,3.3543,3.3552,3.3576,3.3614,3.3637,3.3653,3.3666,3.3697,3.3734,3.3708,3.3719,3.3704,3.3732,3.3805,3.3701,3.3701,3.372,3.3882,3.3903,3.3917,3.3789,3.3791,3.3793,3.3881,0,3.3602,3.3669,3.3653,3.3719,3.3748,3.3715,3.3748,3.3757,3.3753,3.3777,3.3771,3.3798,3.3762,3.3769,3.3795,3.3791,3.3837,3.3784,3.3817,3.3818,3.3816,3.3932,3.3954,3.4038,3.3892,3.3894,3.3896,0,3.3714,3.3732,3.3801,3.3806,3.3818,3.3848,3.3867,3.389,3.3899,3.3894,3.3907,3.3886,3.3923,3.3879,3.3929,3.3893,3.3906,3.3906,3.3908,3.3911,3.3862,3.3937,3.4064,3.4076,3.3913,3.3912,3.391,0,3.3798,3.384,3.3887,3.3895,3.3901,3.3923,3.3927,3.3934,3.3948,3.3964,3.3973,3.3994,3.4005,3.402,3.4006,3.3975,3.4058,3.4013,3.4055,3.4055,3.4074,3.4073,3.4204,3.4082,3.4082,3.4081,3.4081,0,3.3898,3.3942,3.3925,3.3954,3.4001,3.3983,3.403,3.4029,3.4036,3.4063,3.4035,3.4061,3.404,3.4064,3.4053,3.4096,3.4101,3.4098,3.4094,3.4101,3.4101,3.4108,3.4102,3.4085,3.4084,3.4083,3.4083,0,3.4001,3.3991,3.404,3.4043,3.4044,3.4079,3.4081,3.4107,3.4101,3.4136,3.4143,3.4134,3.4161,3.4148,3.4175,3.4167,3.4224,3.4212,3.4221,3.4218,3.4261,3.4257,3.4401,3.4419,3.4286,3.4287,3.4288,0,3.4065,3.4098,3.4105,3.4122,3.4128,3.4155,3.417,3.4152,3.4169,3.4182,3.4206,3.4231,3.425,3.4294,3.4289,3.431,3.4299,3.4348,3.4302,3.4307,3.43,3.4298,3.4301,3.4357,3.4359,3.436,3.4361,0,3.4181,3.4175,3.4198,3.422,3.4239,3.4254,3.4268,3.4283,3.4266,3.4285,3.4313,3.4328,3.4357,3.4382,3.44,3.4402,3.4379,3.4376,3.4387,3.4393,3.4397,3.4396,3.4246,3.4373,3.4371,3.4371,3.437,3.437,3.4266,3.4294,3.4303,3.433,3.4339,3.4352,3.4377,3.4374,3.4397,3.442,3.4408,3.444,3.4448,3.447,3.4476,3.4501,3.4481,3.4497,3.4501,3.4505,3.4511,3.4394,3.4504,3.4503,3.4503,3.4503,3.4503,0,3.4381,3.4385,3.441,3.443,3.4451,3.4428,3.4442,3.446,3.449,3.4499,3.4519,3.455,3.4574,3.4571,3.4593,3.4613,3.4603,3.4619,3.4618,3.4619,3.4527,3.4515,3.4627,3.4627,3.4627,3.4627,3.4627,3.4627,3.4443,3.4489,3.4484,3.4533,3.4537,3.4569,3.4579,3.4591,3.4598,3.4635,3.4656,3.4654,3.4658,3.468,3.4701,3.4699,3.4708,3.4729,3.4723,3.4637,3.4625,3.4613,3.4602,3.4731,3.4731,3.4813,3.4814,3.4814]}]]